Our Recent Posts

Tags

August 2021 Laguna Beach Real Estate Closings


13 N Stonington Road, Laguna Beach, CA 92651 8/1/2021 $ 4,400,000


465 Osgood Court, Laguna Beach, CA 92651 8/2/2021 $ 1,595,000


3 Stickley Drive, Laguna Beach, CA 92651 8/2/2021 $ 6,250,000


31912 Homewood Place, Laguna Beach, CA 92651 8/3/2021 $ 1,000,000


31755 Coast Hwy #106, Laguna Beach, CA 92651 8/3/2021 $ 2,700,000


206 Santa Rosa Court, Laguna Beach, CA 92651 8/4/2021 $ 695,000


490 Hilledge Drive, Laguna Beach, CA 92651 8/4/2021 $ 2,595,000


261 Highland Road, Laguna Beach, CA 92651 8/4/2021 $ 3,680,000


31521 Summit Road, Laguna Beach, CA 92651 8/4/2021 $ 1,045,000


1388 Capistrano Avenue, Laguna Beach, CA 92651 8/6/2021 $ 1,300,000


358 Flora St, Laguna Beach, CA 92651 8/6/2021 $ 2,250,000


908 Quivera Street, Laguna Beach, CA 92651 8/6/2021 $ 3,650,000


21692 Ocean Vista #C, Laguna Beach, CA 92651 8/6/2021 $ 949,000


766 Bolsana, Laguna Beach, CA 92651 8/10/2021 $ 2,830,000


1415 Coral Drive, Laguna Beach, CA 92651 8/10/2021 $ 3,875,000


1124 Catalina Street, Laguna Beach, CA 92651 8/11/2021 $ 2,200,000


520 Cliff Drive Unit#101, Laguna Beach, CA 92651 8/11/2021 $ 1,400,000


31412 Holly Drive, Laguna Beach, CA 92651 8/11/2021 $ 3,500,000


108 Santa Rosa Court, Laguna Beach, CA 92651 8/12/2021 $ 675,000


1487 Catalina, Laguna Beach, CA 92651 8/12/2021 $ 2,222,350


2679 Victoria Drive, Laguna Beach, CA 92651 8/12/2021 $ 9,750,000


1631 Louise Street, Laguna Beach, CA 92651 8/12/2021 $ 2,600,000


2949 Alexander Road, Laguna Beach, CA 92651 8/13/2021 $ 2,750,000


530 Cliff Drive Unit#203, Laguna Beach, CA 92651 8/13/2021 $ 1,820,000


224 Viejo Street, Laguna Beach, CA 92651 8/13/2021 $ 2,000,000


2568 Bonita Way, Laguna Beach, CA 92651 8/16/2021 $ 1,800,000


31099 Coast, Laguna Beach, CA 92651 8/16/2021 $ 6,750,000


552 Temple Hills Drive, Laguna Beach, CA 92651 8/17/2021 $ 3,586,750


1339 Dunning Drive, Laguna Beach, CA 92651 8/17/2021 $ 4,475,000


733 Pelican Drive, Laguna Beach, CA 92651 8/18/2021 $ 2,775,000


414 Bluebird Canyon, Laguna Beach, CA 92651 8/18/2021 $ 3,000,000


21641 Wesley Dr. #B, Laguna Beach, CA 92651 8/18/2021 $ 740,000


2 La Senda Place, Laguna Beach, CA 92651 8/18/2021 $ 3,150,000


20431 Sun Valley Drive, Laguna Beach, CA 92651 8/19/2021 $ 1,825,000


422 Cypress Dr. #422, Laguna Beach, CA 92651 8/19/2021 $ 1,069,000


913 Summit Way, Laguna Beach, CA 92651 8/19/2021 $ 3,295,000


1565 Via Majorca, Laguna Beach, CA 92651 8/19/2021 $ 4,150,000


719 Emerald Bay, Laguna Beach, CA 92651 8/19/2021 $ 4,350,000


590 Cress Street, Laguna Beach, CA 92651 8/20/2021 $ 3,700,000


2 S Stonington Road, Laguna Beach, CA 92651 8/20/2021 $ 2,592,000


402 San Nicholas Court, Laguna Beach, CA 92651 8/23/2021 $ 699,000


1495 Regatta Road, Laguna Beach, CA 92651 8/23/2021 $ 1,200,000


1315 Pitcairn Place, Laguna Beach, CA 92651 8/23/2021 $ 4,595,000


81 Emerald Bay, Laguna Beach, CA 92651 8/23/2021 $ 11,750,000


21712 Wesley Drive #7, Laguna Beach, CA 92651 8/23/2021 $ 1,250,000


1228 Anacapa Way, Laguna Beach, CA 92651 8/25/2021 $ 2,100,000


2025 Crestview Drive, Laguna Beach, CA 92651 8/25/2021 $ 2,550,000


2985 Mountain View Dr., Laguna Beach, CA 92651 8/26/2021 $ 2,200,000


990 Santa Ana Street, Laguna Beach, CA 92651 8/26/2021 $ 2,305,000


253 Emerald Bay, Laguna Beach, CA 92651 8/26/2021 $ 7,000,001


1060 N Coast, Laguna Beach, CA 92651 8/27/2021 $ 1,850,000


2980 Zurich Court, Laguna Beach, CA 92651 8/30/2021 $ 4,500,000


321 San Nicholas Court, Laguna Beach, CA 92651 8/31/2021 $ 735,000


274 Upland Road, Laguna Beach, CA 92651 8/31/2021 $ 2,499,000


586 Nyes Place, Laguna Beach, CA 92651 8/31/2021 $ 3,450,000


1360 Circle Way, Laguna Beach, CA 92651 8/31/2021 $ 4,500,000


Median $ 2,592,000